• In Hungary
  • List of Countries
  • For 7 days
  • Water Temperature
  • Satellite Maps
  • Weather Map
  • News
  • Weather Widgets
  • user-avatar
    Login

    Hourly Weather Midobe

    Today, 18 August, Saturday

    Time Temperature Precipitation Wind Pressure Humidity
    00:00 +23°C° 0 mm 1 mps 724 mmHg 92%
    01:00 +23°C° 0 mm 1 mps 724 mmHg 92%
    02:00 +23°C° 0 mm 1 mps 723 mmHg 92%
    03:00 +23°C° 0 mm 1 mps 723 mmHg 92%
    04:00 +23°C° 0 mm 1 mps 723 mmHg 92%
    05:00 +23°C° 0 mm 1 mps 723 mmHg 92%
    06:00 +23°C° 0 mm 1 mps 723 mmHg 93%
    07:00 +23°C° 0 mm 1 mps 724 mmHg 91%
    08:00 +25°C° 0 mm 1 mps 724 mmHg 83%
    09:00 +27°C° 0 mm 1 mps 724 mmHg 74%
    10:00 +29°C° 0 mm 1 mps 725 mmHg 66%
    11:00 +29°C° 0.2 mm 1 mps 724 mmHg 63%
    12:00 +30°C° 0.2 mm 2 mps 724 mmHg 60%
    13:00 +31°C° 0 mm 2 mps 723 mmHg 58%
    14:00 +31°C° 0.6 mm 2 mps 723 mmHg 61%
    15:00 +30°C° 0.6 mm 2 mps 722 mmHg 63%
    16:00 +30°C° 0.6 mm 3 mps 722 mmHg 66%
    17:00 +28°C° 0.5 mm 2 mps 722 mmHg 72%
    18:00 +27°C° 0.5 mm 2 mps 722 mmHg 78%
    19:00 +25°C° 0.5 mm 2 mps 723 mmHg 85%
    20:00 +25°C° 0.1 mm 2 mps 723 mmHg 87%
    21:00 +24°C° 0.1 mm 1 mps 724 mmHg 89%
    22:00 +24°C° 0.1 mm 1 mps 724 mmHg 91%
    23:00 +24°C° 0 mm 1 mps 724 mmHg 91%

    Tomorrow, 19 August, Sunday

    Time Temperature Precipitation Wind Pressure Humidity
    00:00 +23°C° 0 mm 1 mps 724 mmHg 92%
    01:00 +23°C° 0 mm 1 mps 724 mmHg 92%
    02:00 +23°C° 0 mm 1 mps 724 mmHg 93%
    03:00 +23°C° 0 mm 1 mps 724 mmHg 93%
    04:00 +23°C° 0 mm 1 mps 723 mmHg 93%
    05:00 +23°C° 0.1 mm 1 mps 723 mmHg 93%
    06:00 +23°C° 0.1 mm 1 mps 724 mmHg 93%
    07:00 +23°C° 0.1 mm 1 mps 724 mmHg 93%
    08:00 +25°C° 0 mm 1 mps 724 mmHg 86%
    09:00 +26°C° 0 mm 2 mps 725 mmHg 79%
    10:00 +27°C° 0 mm 2 mps 726 mmHg 72%
    11:00 +28°C° 0.4 mm 2 mps 725 mmHg 70%
    12:00 +29°C° 0.4 mm 2 mps 725 mmHg 67%
    13:00 +29°C° 0.4 mm 3 mps 724 mmHg 65%
    14:00 +29°C° 0.4 mm 3 mps 724 mmHg 67%
    15:00 +29°C° 0.4 mm 3 mps 723 mmHg 68%
    16:00 +28°C° 0.4 mm 3 mps 723 mmHg 70%
    17:00 +27°C° 0.2 mm 3 mps 723 mmHg 75%
    18:00 +26°C° 0.2 mm 3 mps 723 mmHg 79%
    19:00 +25°C° 0.2 mm 2 mps 723 mmHg 84%
    20:00 +24°C° 0 mm 2 mps 724 mmHg 86%
    21:00 +24°C° 0 mm 2 mps 725 mmHg 88%
    22:00 +23°C° 0 mm 2 mps 725 mmHg 90%
    23:00 +23°C° 0 mm 1 mps 725 mmHg 91%

    Day after tomorrow, 20 August, Monday

    Time Temperature Precipitation Wind Pressure Humidity
    00:00 +23°C° 0 mm 1 mps 725 mmHg 92%
    01:00 +23°C° 0 mm 1 mps 725 mmHg 92%
    02:00 +22°C° 0 mm 1 mps 725 mmHg 93%
    03:00 +22°C° 0 mm 1 mps 724 mmHg 94%
    04:00 +22°C° 0 mm 1 mps 724 mmHg 94%
    05:00 +22°C° 0 mm 1 mps 724 mmHg 94%
    06:00 +21°C° 0 mm 2 mps 724 mmHg 93%
    07:00 +23°C° 0 mm 2 mps 725 mmHg 92%
    08:00 +23°C° 0 mm 2 mps 725 mmHg 88%
    09:00 +24°C° 0 mm 2 mps 726 mmHg 84%
    10:00 +25°C° 0 mm 2 mps 726 mmHg 80%
    11:00 +26°C° 0.1 mm 2 mps 726 mmHg 76%
    12:00 +27°C° 0.1 mm 2 mps 725 mmHg 71%
    13:00 +28°C° 0.1 mm 2 mps 725 mmHg 66%
    14:00 +28°C° 0.4 mm 2 mps 724 mmHg 67%
    15:00 +28°C° 0.4 mm 3 mps 723 mmHg 68%
    16:00 +28°C° 0.4 mm 3 mps 723 mmHg 68%
    17:00 +27°C° 0.1 mm 2 mps 723 mmHg 73%
    18:00 +26°C° 0.1 mm 2 mps 723 mmHg 77%
    19:00 +25°C° 0.1 mm 2 mps 723 mmHg 82%
    20:00 +24°C° 0 mm 2 mps 724 mmHg 84%
    21:00 +24°C° 0 mm 1 mps 725 mmHg 86%
    22:00 +23°C° 0 mm 1 mps 725 mmHg 89%
    23:00 +23°C° 0 mm 1 mps 725 mmHg 89%

    21 August, Tuesday

    Time Temperature Precipitation Wind Pressure Humidity
    00:00 +23°C° 0 mm 1 mps 725 mmHg 90%
    01:00 +23°C° 0 mm 1 mps 725 mmHg 91%
    02:00 +23°C° 0 mm 1 mps 724 mmHg 91%
    03:00 +23°C° 0 mm 1 mps 724 mmHg 91%
    04:00 +23°C° 0 mm 1 mps 724 mmHg 92%
    05:00 +23°C° 0 mm 2 mps 724 mmHg 92%
    06:00 +23°C° 0 mm 2 mps 724 mmHg 92%
    07:00 +23°C° 0 mm 2 mps 724 mmHg 91%
    08:00 +23°C° 0 mm 2 mps 725 mmHg 89%
    09:00 +24°C° 0 mm 2 mps 725 mmHg 86%
    10:00 +24°C° 0 mm 2 mps 726 mmHg 84%
    11:00 +25°C° 0 mm 2 mps 725 mmHg 80%
    12:00 +26°C° 0 mm 2 mps 725 mmHg 77%
    13:00 +26°C° 0 mm 2 mps 724 mmHg 73%
    14:00 +27°C° 0 mm 2 mps 724 mmHg 71%
    15:00 +27°C° 0 mm 2 mps 723 mmHg 70%
    16:00 +27°C° 0 mm 2 mps 723 mmHg 68%
    17:00 +26°C° 0 mm 2 mps 723 mmHg 74%
    18:00 +25°C° 0 mm 2 mps 723 mmHg 79%
    19:00 +24°C° 0 mm 1 mps 723 mmHg 84%
    20:00 +23°C° 0 mm 1 mps 724 mmHg 87%
    21:00 +23°C° 0 mm 1 mps 724 mmHg 90%
    22:00 +22°C° 0 mm 1 mps 725 mmHg 93%
    23:00 +22°C° 0 mm 1 mps 725 mmHg 93%

    22 August, Wednesday

    Time Temperature Precipitation Wind Pressure Humidity
    00:00 +22°C° 0 mm 1 mps 725 mmHg 94%
    01:00 +22°C° 0 mm 1 mps 724 mmHg 95%
    02:00 +22°C° 0 mm 1 mps 724 mmHg 95%
    03:00 +22°C° 0 mm 1 mps 724 mmHg 94%
    04:00 +22°C° 0 mm 1 mps 723 mmHg 94%
    05:00 +22°C° 0 mm 1 mps 724 mmHg 93%
    06:00 +22°C° 0 mm 1 mps 724 mmHg 92%
    07:00 +22°C° 0 mm 1 mps 725 mmHg 91%
    08:00 +24°C° 0 mm 1 mps 725 mmHg 84%
    09:00 +25°C° 0 mm 1 mps 726 mmHg 78%
    10:00 +26°C° 0 mm 2 mps 726 mmHg 71%
    11:00 +28°C° 0 mm 2 mps 725 mmHg 64%
    12:00 +30°C° 0 mm 2 mps 725 mmHg 58%
    13:00 +31°C° 0 mm 2 mps 724 mmHg 51%
    14:00 +31°C° 0.1 mm 2 mps 724 mmHg 53%
    15:00 +31°C° 0.1 mm 3 mps 723 mmHg 54%
    16:00 +30°C° 0.1 mm 3 mps 723 mmHg 56%
    17:00 +29°C° 0.1 mm 3 mps 723 mmHg 64%
    18:00 +27°C° 0.1 mm 2 mps 723 mmHg 71%
    19:00 +25°C° 0.1 mm 2 mps 724 mmHg 79%
    20:00 +24°C° 0 mm 2 mps 724 mmHg 82%
    21:00 +24°C° 0 mm 2 mps 724 mmHg 85%
    22:00 +23°C° 0 mm 2 mps 725 mmHg 88%
    23:00 +23°C° 0 mm 2 mps 725 mmHg 88%

    23 August, Thursday

    Time Temperature Precipitation Wind Pressure Humidity
    00:00 +23°C° 0 mm 2 mps 724 mmHg 88%
    01:00 +23°C° 0 mm 2 mps 724 mmHg 89%
    02:00 +21°C° 0 mm 2 mps 724 mmHg 89%
    03:00 +21°C° 0 mm 2 mps 724 mmHg 89%
    04:00 +21°C° 0 mm 2 mps 724 mmHg 89%
    05:00 +21°C° 0 mm 2 mps 724 mmHg 89%
    06:00 +21°C° 0 mm 2 mps 724 mmHg 89%
    07:00 +21°C° 0 mm 2 mps 724 mmHg 89%
    08:00 +24°C° 0 mm 2 mps 725 mmHg 81%
    09:00 +25°C° 0 mm 2 mps 725 mmHg 73%
    10:00 +27°C° 0 mm 2 mps 726 mmHg 65%
    11:00 +29°C° 0 mm 2 mps 725 mmHg 59%
    12:00 +30°C° 0 mm 2 mps 725 mmHg 53%
    13:00 +32°C° 0 mm 2 mps 724 mmHg 47%
    14:00 +31°C° 0 mm 2 mps 724 mmHg 48%
    15:00 +31°C° 0 mm 2 mps 723 mmHg 49%
    16:00 +31°C° 0 mm 3 mps 722 mmHg 50%
    17:00 +29°C° 0 mm 2 mps 723 mmHg 57%
    18:00 +27°C° 0 mm 2 mps 723 mmHg 64%
    19:00 +26°C° 0 mm 2 mps 723 mmHg 71%
    20:00 +25°C° 0 mm 2 mps 724 mmHg 74%
    21:00 +24°C° 0 mm 2 mps 724 mmHg 78%
    22:00 +24°C° 0 mm 1 mps 725 mmHg 81%
    23:00 +23°C° 0 mm 1 mps 724 mmHg 83%
    Show more